Date,TemperatureHighF,TemperatureAvgF,TemperatureLowF,DewpointHighF,DewpointAvgF,DewpointLowF,HumidityHigh,HumidityAvg,HumidityLow,PressureMaxIn,PressureMinIn,WindSpeedMaxMPH,WindSpeedAvgMPH,GustSpeedMaxMPH,PrecipitationSumIn
2013-3-1,43.3,37.0,28.4,31.7,27.2,23.7,94,69,48,29.81,29.63,20,4,20,0.00
2013-3-2,39.8,34.3,30.3,24.6,21.4,18.3,67,59,48,29.81,29.72,19,5,19,0.00
2013-3-3,36.5,31.2,25.4,18.7,17.1,15.5,67,56,46,29.80,29.71,19,4,20,0.00
2013-3-4,40.3,33.2,28.4,21.5,17.7,12.7,64,53,39,29.94,29.80,24,5,24,0.00
2013-3-5,46.2,37.4,30.4,27.5,23.5,20.5,74,58,43,30.02,29.92,16,2,16,0.00
2013-3-6,40.8,37.4,33.2,35.6,31.5,25.8,88,79,67,29.93,29.77,21,3,21,0.07
2013-3-7,45.8,39.8,35.2,30.6,26.7,23.8,81,60,42,30.09,29.97,18,4,19,0.00
2013-3-8,43.5,35.3,29.5,32.3,27.5,22.9,94,74,55,30.22,30.03,20,5,21,0.10
2013-3-9,60.2,43.5,29.5,25.5,21.2,14.5,78,46,17,30.30,30.19,14,2,14,0.00
2013-3-10,56.0,40.5,24.2,35.9,28.3,20.1,88,65,33,30.35,30.23,7,1,0,0.00
2013-3-11,59.0,47.0,36.5,48.2,40.6,32.1,99,80,44,30.28,30.03,10,1,0,0.00
2013-3-12,56.9,51.5,39.9,56.6,48.6,33.3,99,90,72,30.03,29.66,18,2,18,0.92
2013-3-13,50.2,39.8,29.7,34.5,27.7,22.0,90,63,39,29.93,29.81,20,2,20,0.01
2013-3-14,40.5,34.3,28.2,22.2,14.3,7.5,74,45,28,29.99,29.89,23,5,28,0.00
2013-3-15,50.1,39.3,25.0,31.3,20.7,10.0,63,47,38,30.01,29.70,15,2,15,0.00
2013-3-16,45.7,35.8,32.1,30.9,28.0,21.8,93,75,54,29.91,29.75,12,1,12,0.03
2013-3-17,37.5,32.6,29.1,30.6,21.8,16.8,94,66,44,30.28,29.91,13,2,14,0.12
2013-3-18,37.9,31.2,25.4,33.8,22.3,11.4,97,71,49,30.36,29.91,11,2,0,0.03
2013-3-19,49.5,39.7,34.0,41.0,31.5,16.7,100,77,33,29.91,29.68,22,3,22,0.62
2013-3-20,47.1,37.3,28.8,23.8,18.0,14.0,65,47,28,29.90,29.77,24,2,24,0.00
2013-3-21,37.3,32.4,27.6,28.1,18.0,7.7,90,58,31,29.82,29.65,18,3,22,0.01
2013-3-22,42.1,32.8,26.1,22.2,17.7,11.3,71,54,39,29.91,29.75,20,3,20,0.00
2013-3-23,46.7,37.4,29.3,22.2,18.5,16.5,63,47,32,29.95,29.85,19,4,22,0.00
2013-3-24,46.7,37.2,25.4,25.5,19.9,16.8,76,51,31,29.96,29.67,14,1,14,0.00
2013-3-25,37.5,35.3,32.9,34.2,30.8,24.3,96,85,59,29.67,29.46,13,1,13,0.25
2013-3-26,50.2,40.7,33.2,36.8,31.4,22.7,98,73,35,29.89,29.61,16,2,17,0.01
2013-3-27,49.8,39.5,26.7,34.9,27.6,22.8,96,66,36,30.01,29.89,23,3,23,0.00
2013-3-28,47.0,40.5,28.8,30.0,27.1,23.7,87,60,42,30.13,29.98,19,3,19,0.00
2013-3-29,52.3,43.9,29.4,30.4,27.2,23.5,84,53,36,30.17,30.08,17,3,17,0.00
2013-3-30,58.4,43.3,26.6,34.7,25.6,20.8,94,56,24,30.18,30.07,12,1,14,0.00
2013-3-31,56.3,41.8,28.4,46.8,33.9,25.3,99,77,36,30.11,29.68,12,1,12,0.23